[[{"header":{"parameterUnit":"m.s-1","parameterCategory":1,"la1":30.2991,"la2":30.254,"lo1":-89.0895,"lo2":-89.0444,"dy":0.0017,"dx":0.0017,"nx":28,"ny":28,"refTime":"2025-05-18T03:00:00:Z","depth":0,"parameterNumber":2,"parameterNumberName":"U-component_of_WINDS"},"data":[0,0,0,0,0,0,0,0,0,0,0,0,0,0,0,0,0,0,0,0,0,0,0,0,0,0,0,0,0,0,0,0,0,0,0,0,0,0,0,0,0,0,0,0,0,0,0,0,0,0,0,0,0,0,0,0,0,0,0.3866,0.3867,0,0.3964,0.3965,0.3966,0.3996,0.3996,0.3995,0.3995,0.4096,0.4099,0.4102,0,0,0,0,0,0,0,0,0,0,0,0,0,0.3705,0.3708,0.3866,0.3867,0.3868,0.3963,0.3965,0.3966,0.3996,0.3996,0.3995,0.3995,0.4095,0.4098,0.4102,0,0,0,0,0,0,0,0,0,0,0,0,0,0.3786,0.3709,0.3865,0.3895,0.3898,0.3963,0.3965,0.3966,0.3996,0.3996,0.3995,0.3994,0.4093,0.4098,0.4103,0.4146,0,0,0.4117,0.4119,0,0,0,0,0,0,0,0,0.3782,0.3792,0.3889,0.3893,0.3897,0.3967,0.3945,0.4027,0.3997,0.3959,0.3995,0.3994,0.4054,0.4061,0.4081,0.415,0.4155,0.4117,0.412,0.4122,0.4124,0,0,0,0,0,0,0,0.3776,0.3788,0.3904,0.3891,0.3895,0.3903,0.3914,0.3961,0.4009,0.3962,0.3965,0.3976,0.4056,0.4077,0.4084,0.4156,0.4117,0.4121,0.4124,0.4126,0.4266,0.4266,0,0,0,0,0,0,0.3765,0.3783,0.3901,0.3907,0.3836,0.3906,0.3918,0.3945,0.4009,0.4018,0.3976,0.3977,0.4069,0.4078,0.4088,0.4142,0.4122,0.4127,0.4129,0.4265,0.4266,0.4267,0,0,0,0,0,0,0.3762,0.3776,0.3897,0.3846,0.3862,0.391,0.394,0.3948,0.3969,0.4019,0.4028,0.3989,0.4069,0.4081,0.4131,0.4146,0.4129,0.4133,0.4264,0.4265,0.4266,0.4252,0,0,0,0,0,0,0.3757,0.3774,0.3791,0.3846,0.3865,0.3939,0.3941,0.395,0.3977,0.3978,0.4034,0.4042,0.4069,0.4124,0.4136,0.4152,0.4137,0.4263,0.4264,0.4266,0.4251,0.4252,0.4254,0,0,0,0,0,0.3751,0.3783,0.3792,0.3806,0.3887,0.394,0.395,0.3981,0.3978,0.3995,0.4028,0.404,0.4142,0.4129,0.4142,0.4161,0.4262,0.4264,0.4266,0.4251,0.4252,0.4253,0,0,0,0,0,0,0.3728,0.3791,0.3801,0.3852,0.389,0.3945,0.3967,0.3981,0.4022,0.4022,0.4058,0.407,0.4117,0.4144,0.4127,0.4206,0.4203,0.4207,0.4186,0.4188,0.419,0.4182,0.4141,0,0,0,0,0,0.3729,0.3767,0.382,0.3859,0.3878,0.3919,0.3943,0.3963,0.4005,0.4021,0.4058,0.4097,0.4139,0.4165,0.4206,0.4255,0.4268,0.4274,0.4275,0.4276,0.428,0.4308,0.4312,0.4273,0.4273,0.4273,0,0,0.3731,0.377,0.3792,0.3855,0.3888,0.3926,0.3933,0.3973,0.4002,0.4028,0.4077,0.4105,0.4152,0.4202,0.4225,0.4225,0.4293,0.4279,0.4279,0.4283,0.4311,0.4314,0.4317,0.4275,0.4275,0.4274,0,0,0.3755,0.3788,0.3824,0.3857,0.3905,0.3933,0.3941,0.3994,0.4013,0.4063,0.4083,0.4118,0.4188,0.4221,0.4247,0.4283,0.4296,0.4295,0.4301,0.4328,0.4331,0.4334,0.4347,0.4351,0.4298,0.4298,0.4298,0,0.3751,0.381,0.3841,0.3881,0.3908,0.3933,0.3971,0.4,0.406,0.4078,0.4077,0.4165,0.4199,0.4257,0.4265,0.4285,0.4297,0.4289,0.4328,0.4332,0.4335,0.4348,0.4352,0.4298,0.4298,0.4298,0.4298,0,0.3803,0.3843,0.3867,0.3924,0.3954,0.3992,0.403,0.4057,0.4074,0.4101,0.4152,0.4193,0.4242,0.4257,0.4275,0.4318,0.4316,0.4321,0.4319,0.4337,0.435,0.4355,0.4297,0.4297,0.4298,0.4298,0,0,0.3815,0.3889,0.3897,0.3923,0.3979,0.401,0.405,0.4098,0.412,0.416,0.4194,0.4253,0.4258,0.4287,0.4308,0.4332,0.4358,0.4335,0.4336,0.4338,0.4408,0.4404,0.4409,0.4367,0.4368,0.4369,0.4404,0,0.3845,0.3917,0.3946,0.4004,0.4042,0.4066,0.41,0.4138,0.4165,0.4201,0.423,0.4271,0.4275,0.4293,0.4317,0.4349,0.4372,0.4347,0.4399,0.4401,0.4387,0.4415,0.4411,0.4442,0.4409,0.441,0.4411,0,0.3891,0.3931,0.3993,0.4044,0.4061,0.4091,0.4138,0.4172,0.4215,0.4233,0.4265,0.4285,0.4328,0.4322,0.4381,0.4363,0.4386,0.4405,0.4407,0.4413,0.4407,0.4422,0.4453,0.4457,0.4419,0.4418,0.4417,0,0.3893,0.3963,0.4009,0.403,0.4091,0.4112,0.4138,0.4181,0.4208,0.4249,0.4267,0.4312,0.4336,0.4371,0.4402,0.4396,0.4458,0.4456,0.4474,0.4474,0.4487,0.4485,0.4521,0.4501,0.4501,0.4501,0.4501,0,0.3924,0.3961,0.4011,0.4039,0.4081,0.4115,0.4155,0.4183,0.4221,0.4255,0.4278,0.431,0.435,0.4386,0.4411,0.4456,0.4467,0.4483,0.4489,0.4481,0.4479,0.4496,0.4495,0.4502,0.4502,0.4502,0.4501,0,0.3934,0.3969,0.4021,0.4074,0.4088,0.4117,0.4162,0.4191,0.4218,0.4261,0.4273,0.4317,0.4361,0.4396,0.4454,0.4471,0.4518,0.4525,0.4503,0.4507,0.4523,0.4521,0.4572,0.458,0.4554,0.4554,0.4554,0,0.3952,0.3981,0.4037,0.4062,0.4088,0.4127,0.4155,0.4189,0.4217,0.4269,0.4291,0.4336,0.4375,0.4445,0.4482,0.4526,0.4534,0.4549,0.4541,0.4532,0.4534,0.4532,0.4535,0.455,0.455,0.455,0.455,0,0.3979,0.3995,0.4034,0.408,0.4112,0.415,0.4187,0.4206,0.4247,0.4277,0.4323,0.4353,0.4412,0.4457,0.4505,0.4532,0.4548,0.4552,0.4559,0.4551,0.4537,0.4545,0.4506,0.4551,0.4551,0.4551,0.4551,0.4551,0.3994,0.4021,0.4065,0.4108,0.414,0.4174,0.4204,0.4235,0.4274,0.4324,0.4342,0.4389,0.4432,0.4498,0.4525,0.4563,0.4564,0.4573,0.4576,0.4578,0.4577,0.4531,0.4571,0.4571,0.4571,0.4572,0.4572,0,0.4023,0.4052,0.4091,0.4144,0.4177,0.4189,0.4232,0.4259,0.43,0.4339,0.4376,0.4428,0.4472,0.4513,0.4558,0.458,0.4589,0.4591,0.459,0.4596,0.4573,0.4563,0.4584,0.4584,0.4584,0.4584,0.4584,0.4584,0.4041,0.4088,0.4109,0.4171,0.42,0.4246,0.427,0.4302,0.4333,0.439,0.4427,0.4453,0.4492,0.4541,0.4582,0.4593,0.4609,0.4609,0.4622,0.46,0.4598,0.4596,0.4587,0.4612,0.4612,0.4642,0.4642,0.4642]},{"header":{"parameterUnit":"m.s-1","parameterCategory":1,"la1":30.2991,"la2":30.254,"lo1":-89.0895,"lo2":-89.0444,"dy":0.0017,"dx":0.0017,"nx":28,"ny":28,"refTime":"2025-05-18T03:00:00:Z","depth":0,"parameterNumber":3,"parameterNumberName":"V-component_of_WINDS"},"data":[0,0,0,0,0,0,0,0,0,0,0,0,0,0,0,0,0,0,0,0,0,0,0,0,0,0,0,0,0,0,0,0,0,0,0,0,0,0,0,0,0,0,0,0,0,0,0,0,0,0,0,0,0,0,0,0,0,0,4.8518,4.8517,0,4.8438,4.8437,4.8436,4.8367,4.8366,4.8365,4.8365,4.8276,4.8274,4.8273,0,0,0,0,0,0,0,0,0,0,0,0,0,4.8607,4.8606,4.8518,4.8517,4.8516,4.8438,4.8437,4.8435,4.8367,4.8366,4.8365,4.8364,4.8277,4.8275,4.8273,0,0,0,0,0,0,0,0,0,0,0,0,0,4.8552,4.8606,4.8518,4.8472,4.8468,4.8438,4.8437,4.8435,4.8367,4.8366,4.8365,4.8364,4.8277,4.8275,4.8272,4.8279,0,0,4.8265,4.8264,0,0,0,0,0,0,0,0,4.8555,4.8548,4.848,4.8475,4.847,4.8411,4.8435,4.8383,4.8368,4.8405,4.8365,4.8363,4.8321,4.8315,4.8302,4.8275,4.8271,4.8264,4.8263,4.8262,4.8261,0,0,0,0,0,0,0,4.8559,4.8551,4.8486,4.8479,4.8473,4.8455,4.8445,4.8425,4.837,4.8402,4.8397,4.8388,4.8318,4.8305,4.83,4.827,4.8264,4.8262,4.8261,4.826,4.8247,4.8248,0,0,0,0,0,0,4.857,4.8555,4.8488,4.8483,4.8511,4.8454,4.8444,4.8431,4.837,4.836,4.839,4.8386,4.831,4.8303,4.8296,4.8302,4.8262,4.826,4.8258,4.8246,4.8247,4.8248,0,0,0,0,0,0,4.8573,4.8565,4.8491,4.8518,4.8507,4.8454,4.844,4.843,4.8417,4.8361,4.8351,4.8386,4.8309,4.83,4.8285,4.8298,4.8258,4.8256,4.8244,4.8246,4.8248,4.8313,0,0,0,0,0,0,4.8576,4.8566,4.8569,4.8519,4.8506,4.8483,4.8441,4.8429,4.8413,4.8407,4.8355,4.8345,4.8307,4.8289,4.8283,4.8294,4.8254,4.8243,4.8245,4.8247,4.831,4.8317,4.8323,0,0,0,0,0,4.8579,4.8589,4.857,4.8562,4.8509,4.8484,4.8476,4.8434,4.8415,4.8417,4.8382,4.8347,4.8298,4.8288,4.828,4.8291,4.8242,4.8244,4.8247,4.8306,4.8315,4.8323,0,0,0,0,0,0,4.8639,4.8581,4.8559,4.8554,4.8525,4.8472,4.8473,4.8445,4.8418,4.8414,4.836,4.8349,4.8341,4.8314,4.8304,4.8296,4.8265,4.8267,4.8313,4.8322,4.8328,4.8335,4.8252,0,0,0,0,0,4.8653,4.8639,4.8588,4.8588,4.8575,4.8527,4.8514,4.8485,4.8452,4.8438,4.8402,4.8369,4.8347,4.8332,4.8308,4.8306,4.8294,4.8309,4.8316,4.8322,4.8324,4.8322,4.8329,4.8257,4.8257,4.8257,0,0,4.8678,4.8645,4.8639,4.8599,4.8573,4.8559,4.8517,4.8503,4.8492,4.8435,4.842,4.8393,4.8353,4.8345,4.8339,4.8322,4.8341,4.8325,4.8331,4.8329,4.8326,4.8332,4.8339,4.8259,4.8258,4.8258,0,0,4.8719,4.8692,4.869,4.8666,4.8629,4.8597,4.8597,4.855,4.8531,4.8515,4.8473,4.8458,4.842,4.8394,4.8376,4.8411,4.8379,4.8405,4.844,4.8439,4.8445,4.845,4.8463,4.8468,4.8406,4.8406,4.8407,0,4.8755,4.8734,4.8692,4.8682,4.8666,4.8618,4.8615,4.8593,4.8549,4.8538,4.8521,4.8474,4.8443,4.843,4.8439,4.8426,4.8424,4.841,4.8448,4.8452,4.8456,4.8468,4.8473,4.841,4.8409,4.8409,4.8409,0,4.8781,4.8768,4.877,4.8732,4.8716,4.871,4.8666,4.8655,4.8628,4.8599,4.8584,4.8547,4.8516,4.851,4.8481,4.8493,4.8484,4.8458,4.8426,4.8467,4.8478,4.8482,4.8415,4.8414,4.8413,4.8412,0,0,4.8855,4.8797,4.8799,4.8782,4.8739,4.8726,4.8718,4.8691,4.8683,4.8654,4.8646,4.8617,4.8594,4.8573,4.8542,4.8541,4.8573,4.8515,4.8513,4.8528,4.8585,4.8606,4.8612,4.8552,4.8553,4.8553,4.8589,0,4.8889,4.8874,4.8837,4.8833,4.882,4.8775,4.8768,4.8741,4.8714,4.8698,4.8667,4.8648,4.8618,4.8606,4.8604,4.857,4.8584,4.8567,4.8543,4.8543,4.8555,4.8617,4.8638,4.8673,4.8593,4.8593,4.8594,0,4.8925,4.8904,4.8899,4.886,4.8853,4.8847,4.882,4.8806,4.8774,4.8755,4.8735,4.8701,4.869,4.8661,4.8645,4.8635,4.8623,4.8605,4.8606,4.8601,4.8571,4.8615,4.8683,4.8689,4.86,4.8599,4.8599,0,4.8981,4.895,4.8944,4.8931,4.8884,4.8882,4.8862,4.8829,4.8816,4.8792,4.8783,4.8757,4.8742,4.8723,4.8683,4.8666,4.8672,4.864,4.8655,4.8657,4.8658,4.8658,4.8725,4.865,4.865,4.865,4.865,0,4.9023,4.9022,4.8969,4.8966,4.8964,4.8922,4.892,4.8896,4.8868,4.8858,4.8817,4.8808,4.8757,4.8742,4.8711,4.8703,4.8697,4.868,4.8672,4.8684,4.8686,4.8675,4.8672,4.8652,4.8651,4.8651,4.8651,0,4.9084,4.9049,4.904,4.8997,4.8987,4.8987,4.895,4.8945,4.8917,4.8905,4.89,4.8855,4.8837,4.8796,4.8764,4.8744,4.8744,4.8729,4.8756,4.875,4.8768,4.8768,4.8831,4.8837,4.8758,4.8759,4.876,0,4.9113,4.9112,4.9071,4.9063,4.9045,4.9032,4.9019,4.8978,4.8967,4.8932,4.8931,4.891,4.889,4.8862,4.8826,4.8803,4.8787,4.8811,4.8783,4.8796,4.8788,4.8789,4.8789,4.8817,4.8818,4.8819,4.8819,0,4.9168,4.9152,4.9136,4.9115,4.9102,4.9083,4.9061,4.9057,4.901,4.8999,4.8981,4.8967,4.8938,4.8917,4.8889,4.8867,4.8836,4.8829,4.8831,4.8844,4.886,4.8852,4.8773,4.8827,4.8827,4.8826,4.8826,4.8825,4.9214,4.9212,4.9184,4.9168,4.9149,4.9131,4.9125,4.9098,4.9082,4.9057,4.9033,4.9018,4.8988,4.8948,4.8928,4.8915,4.8899,4.8902,4.8903,4.8905,4.8911,4.8863,4.8909,4.8909,4.8909,4.8909,4.8908,0,4.9268,4.9249,4.9235,4.9208,4.9197,4.9172,4.9147,4.9139,4.9126,4.9102,4.9085,4.9066,4.9046,4.901,4.8988,4.8984,4.897,4.898,4.8979,4.8975,4.8925,4.8926,4.8992,4.8992,4.8992,4.8992,4.8992,4.8992,4.9295,4.9291,4.9271,4.9258,4.9237,4.9224,4.9213,4.9196,4.9177,4.9158,4.9143,4.912,4.9091,4.9067,4.9049,4.9038,4.9032,4.9047,4.9033,4.8986,4.8978,4.8971,4.8971,4.9046,4.9046,4.9084,4.9084,4.9084]}]]